| time (UTC) | temp C | wind direction | speed KPH | gust KPH | rain 1hr cm | rain 24hr cm | rain mn cm | humidity % | barometer mb |
| 20260906133502 | 22 | 320 | 33.8 | 0.0 | 0.00 | 0.00 | 0.00 | 31 | 1019.0 |
| 20260906130502 | 21 | 310 | 22.5 | 0.0 | 0.00 | 0.00 | 0.00 | 40 | 1019.0 |
| 20260906123504 | 21 | 9.7 | 0.0 | 0.00 | 0.00 | 0.00 | 46 | 1019.0 | |
| 20260906120502 | 17 | 250 | 8.0 | 0.0 | 0.00 | 0.00 | 0.00 | 60 | 1020.0 |
| 20260906113502 | 17 | 280 | 11.3 | 0.0 | 0.00 | 0.00 | 0.00 | 64 | 1020.0 |
| 20260906110502 | 18 | 310 | 33.8 | 0.0 | 0.00 | 0.00 | 0.00 | 49 | 1020.0 |
| 20260906103502 | 20 | 310 | 27.4 | 48.3 | 0.00 | 0.00 | 0.00 | 49 | 1019.0 |
| 20260906100502 | 20 | 290 | 16.1 | 0.0 | 0.00 | 0.00 | 0.00 | 56 | 1019.0 |
| 20260906093502 | 18 | 320 | 29.0 | 0.0 | 0.00 | 0.00 | 0.00 | 52 | 1019.0 |
| 20260906090502 | 20 | 330 | 29.0 | 0.0 | 0.00 | 0.00 | 0.00 | 49 | 1019.0 |
| 20260906083502 | 20 | 330 | 17.7 | 0.0 | 0.00 | 0.00 | 0.00 | 56 | 1019.0 |
| 20260906080502 | 18 | 300 | 14.5 | 0.0 | 0.00 | 0.00 | 0.00 | 60 | 1019.0 |
| 20260906073502 | 17 | 220 | 9.7 | 0.0 | 0.00 | 0.00 | 0.00 | 77 | 1019.0 |
| 20260906070502 | 16 | 260 | 11.3 | 0.0 | 0.00 | 0.00 | 0.00 | 77 | 1020.0 |
| 20260906063503 | 16 | 230 | 11.3 | 0.0 | 0.00 | 0.00 | 0.00 | 77 | 1019.0 |
| 20260906060502 | 17 | 340 | 14.5 | 0.0 | 0.00 | 0.00 | 0.00 | 68 | |
| 20260906053503 | 16 | 290 | 14.5 | 0.0 | 0.00 | 0.00 | 0.00 | 77 | 1019.0 |
| 20260906050502 | 16 | 310 | 17.7 | 0.0 | 0.00 | 0.00 | 0.00 | 83 | 1019.0 |
| 20260906043502 | 16 | 250 | 4.8 | 0.0 | 0.00 | 0.00 | 0.00 | 83 | 1018.0 |
| 20260906040502 | 15 | 240 | 8.0 | 0.0 | 0.00 | 0.00 | 0.00 | 88 | 1018.0 |
| 20260906033502 | 15 | 230 | 9.7 | 0.0 | 0.00 | 0.00 | 0.00 | 88 | 1017.0 |
| 20260906030502 | 15 | 230 | 8.0 | 0.0 | 0.00 | 0.00 | 0.00 | 88 | 1017.0 |
| 20260906023503 | 15 | 230 | 4.8 | 0.0 | 0.00 | 0.00 | 0.00 | 88 | 1017.0 |
| 20260906020503 | 16 | 220 | 3.2 | 0.0 | 0.00 | 0.00 | 0.00 | 83 | 1017.0 |
| 20260906013502 | 16 | 240 | 4.8 | 0.0 | 0.00 | 0.00 | 0.00 | 88 | 1017.0 |
| 20260906010501 | 16 | 190 | 8.0 | 0.0 | 0.00 | 0.00 | 0.00 | 88 | 1017.0 |
| 20260906003501 | 16 | 230 | 8.0 | 0.0 | 0.00 | 0.00 | 0.00 | 88 | 1017.0 |
| 20260906000502 | 16 | 220 | 8.0 | 0.0 | 0.00 | 0.00 | 0.00 | 88 | 1017.0 |
| 20260905233502 | 16 | 250 | 8.0 | 0.0 | 0.00 | 0.00 | 0.00 | 88 | 1017.0 |
| 20260905230503 | 17 | 240 | 8.0 | 0.0 | 0.00 | 0.00 | 0.00 | 83 | 1018.0 |
| 20260905223502 | 17 | 240 | 9.7 | 0.0 | 0.00 | 0.00 | 0.00 | 83 | 1018.0 |
| 20260905220501 | 16 | 240 | 9.7 | 0.0 | 0.00 | 0.00 | 0.00 | 88 | |
| 20260905213502 | 16 | 260 | 9.7 | 0.0 | 0.00 | 0.00 | 0.00 | 88 | 1017.0 |
| 20260905210502 | 16 | 260 | 11.3 | 0.0 | 0.00 | 0.00 | 0.00 | 88 | 1017.0 |
| 20260905203503 | 16 | 270 | 9.7 | 0.0 | 0.00 | 0.00 | 0.00 | 88 | 1017.0 |
| 20260905200502 | 16 | 280 | 9.7 | 0.0 | 0.00 | 0.00 | 0.00 | 94 | 1016.0 |
| 20260905193502 | 17 | 250 | 8.0 | 0.0 | 0.00 | 0.00 | 0.00 | 88 | 1017.0 |
| 20260905190502 | 17 | 240 | 8.0 | 0.0 | 0.00 | 0.00 | 0.00 | 88 | 1017.0 |
| 20260905183503 | 17 | 270 | 9.7 | 0.0 | 0.00 | 0.00 | 0.00 | 88 | 1017.0 |
| 20260905180503 | 17 | 320 | 11.3 | 0.0 | 0.00 | 0.00 | 0.00 | 88 | 1016.0 |
| 20260905173502 | 17 | 320 | 9.7 | 0.0 | 0.00 | 0.00 | 0.00 | 88 | 1016.0 |
| 20260905170502 | 22 | 320 | 14.5 | 0.0 | 0.00 | 0.00 | 0.00 | 50 | 1016.0 |
| 20260905163502 | 22 | 360 | 8.0 | 0.0 | 0.00 | 0.00 | 0.00 | 47 | 1015.0 |
| 20260905160502 | 22 | 320 | 32.2 | 0.0 | 0.00 | 0.00 | 0.00 | 47 | 1015.0 |
| 20260905153503 | 22 | 320 | 27.4 | 46.7 | 0.00 | 0.00 | 0.00 | 47 | 1014.0 |
| 20260905150502 | 23 | 330 | 41.8 | 61.2 | 0.00 | 0.00 | 0.00 | 47 | 1013.0 |
| 20260905143502 | 25 | 330 | 49.9 | 0.0 | 0.00 | 0.00 | 0.00 | 42 | 1012.0 |
| 20260905140502 | 32 | 300 | 17.7 | 0.0 | 0.00 | 0.00 | 0.00 | 29 | 1012.0 |